TimeEDT,TemperatureF,Dew PointF,Humidity,Sea Level PressureIn,VisibilityMPH,Wind Direction,Wind SpeedMPH,Gust SpeedMPH,PrecipitationIn,Events,Conditions,WindDirDegrees,DateUTC
12:15 AM,62.8,60.1,91,30.08,10.0,Calm,Calm,-,N/A,,Overcast,0,2013-10-16 04:15:00
12:35 AM,62.6,60.1,91,30.07,10.0,Calm,Calm,-,N/A,,Overcast,0,2013-10-16 04:35:00
12:55 AM,62.6,60.3,92,30.08,10.0,Calm,Calm,-,N/A,,Overcast,0,2013-10-16 04:55:00
1:15 AM,62.6,60.1,91,30.08,10.0,Calm,Calm,-,N/A,,Overcast,0,2013-10-16 05:15:00
1:35 AM,62.2,60.1,93,30.08,7.0,Calm,Calm,-,N/A,,Overcast,0,2013-10-16 05:35:00
1:55 AM,62.1,60.3,94,30.07,4.0,Calm,Calm,-,N/A,,Overcast,0,2013-10-16 05:55:00
2:15 AM,61.9,60.3,94,30.07,7.0,Calm,Calm,-,N/A,,Overcast,0,2013-10-16 06:15:00
2:35 AM,61.9,60.3,94,30.07,7.0,Calm,Calm,-,N/A,,Overcast,0,2013-10-16 06:35:00
2:55 AM,61.9,60.4,95,30.06,7.0,Calm,Calm,-,N/A,,Overcast,0,2013-10-16 06:55:00
3:15 AM,61.9,60.4,95,30.06,4.0,Calm,Calm,-,N/A,,Overcast,0,2013-10-16 07:15:00
3:35 AM,61.9,60.4,95,30.06,3.0,Calm,Calm,-,N/A,,Overcast,0,2013-10-16 07:35:00
3:55 AM,61.7,60.3,95,30.05,3.0,Calm,Calm,-,N/A,,Overcast,0,2013-10-16 07:55:00
4:15 AM,61.7,60.3,95,30.05,3.0,Calm,Calm,-,N/A,,Overcast,0,2013-10-16 08:15:00
4:35 AM,61.7,60.1,94,30.04,3.0,Calm,Calm,-,N/A,,Overcast,0,2013-10-16 08:35:00
4:55 AM,61.7,60.1,94,30.04,4.0,NE,3.5,-,N/A,,Overcast,40,2013-10-16 08:55:00
5:15 AM,61.5,60.1,95,30.04,5.0,Calm,Calm,-,N/A,,Overcast,0,2013-10-16 09:15:00
5:35 AM,61.3,59.9,95,30.05,7.0,Calm,Calm,-,N/A,,Overcast,0,2013-10-16 09:35:00
5:55 AM,61.3,59.9,95,30.05,7.0,Calm,Calm,-,N/A,,Overcast,0,2013-10-16 09:55:00
6:15 AM,61.3,59.9,95,30.04,7.0,Calm,Calm,-,N/A,,Overcast,0,2013-10-16 10:15:00
6:35 AM,61.3,59.9,95,30.05,5.0,Calm,Calm,-,N/A,,Overcast,0,2013-10-16 10:35:00
6:55 AM,61.2,59.9,96,30.04,7.0,Calm,Calm,-,N/A,,Overcast,0,2013-10-16 10:55:00
7:15 AM,61.3,59.9,95,30.05,7.0,Calm,Calm,-,N/A,,Overcast,0,2013-10-16 11:15:00
7:35 AM,61.3,59.9,95,30.05,7.0,Calm,Calm,-,N/A,,Overcast,0,2013-10-16 11:35:00
7:55 AM,61.3,59.9,95,30.06,7.0,Calm,Calm,-,N/A,,Overcast,0,2013-10-16 11:55:00
8:15 AM,61.7,59.9,94,30.06,7.0,Calm,Calm,-,N/A,,Overcast,0,2013-10-16 12:15:00
8:35 AM,61.7,59.9,94,30.06,3.0,Calm,Calm,-,N/A,,Overcast,0,2013-10-16 12:35:00
8:55 AM,62.1,60.4,94,30.07,7.0,Calm,Calm,-,N/A,,Overcast,0,2013-10-16 12:55:00
9:15 AM,62.2,60.3,93,30.07,7.0,Calm,Calm,-,N/A,,Overcast,0,2013-10-16 13:15:00
9:35 AM,62.8,60.6,93,30.07,10.0,Calm,Calm,-,N/A,,Overcast,0,2013-10-16 13:35:00
9:55 AM,63.5,60.4,90,30.07,10.0,Calm,Calm,-,N/A,,Overcast,0,2013-10-16 13:55:00
10:15 AM,63.7,60.4,89,30.07,10.0,Calm,Calm,-,N/A,,Overcast,0,2013-10-16 14:15:00
10:35 AM,65.8,59.7,81,30.06,10.0,Calm,Calm,-,N/A,,Overcast,0,2013-10-16 14:35:00
10:55 AM,65.8,59.2,79,30.05,10.0,Calm,Calm,-,N/A,,Mostly Cloudy,0,2013-10-16 14:55:00
11:15 AM,67.1,59.7,77,30.05,10.0,Calm,Calm,-,N/A,,Overcast,0,2013-10-16 15:15:00
11:35 AM,67.1,59.4,76,30.05,10.0,Calm,Calm,-,N/A,,Overcast,0,2013-10-16 15:35:00
11:55 AM,67.3,59.5,76,30.05,10.0,Calm,Calm,-,N/A,,Overcast,0,2013-10-16 15:55:00
12:15 PM,67.8,59.9,76,30.04,10.0,Calm,Calm,-,N/A,,Overcast,0,2013-10-16 16:15:00
12:35 PM,67.5,59.7,76,30.04,10.0,Calm,Calm,-,N/A,,Overcast,0,2013-10-16 16:35:00
12:55 PM,67.3,59.7,77,30.03,10.0,Calm,Calm,-,N/A,,Overcast,0,2013-10-16 16:55:00
1:15 PM,67.5,59.4,75,30.03,10.0,Calm,Calm,-,N/A,,Overcast,0,2013-10-16 17:15:00
1:35 PM,68.0,59.9,75,30.02,10.0,Calm,Calm,-,N/A,,Overcast,0,2013-10-16 17:35:00
1:55 PM,68.4,59.4,73,30.02,10.0,Calm,Calm,-,N/A,,Overcast,0,2013-10-16 17:55:00
2:15 PM,68.9,59.4,72,30.01,10.0,Calm,Calm,-,N/A,,Overcast,0,2013-10-16 18:15:00
2:35 PM,68.5,58.6,71,30.00,10.0,Calm,Calm,-,N/A,,Overcast,0,2013-10-16 18:35:00
2:55 PM,68.5,59.9,74,29.99,10.0,Calm,Calm,-,N/A,,Overcast,0,2013-10-16 18:55:00
3:15 PM,68.9,59.2,71,29.99,10.0,Calm,Calm,-,N/A,,Overcast,0,2013-10-16 19:15:00
3:35 PM,69.3,59.2,70,29.99,10.0,Calm,Calm,-,N/A,,Overcast,0,2013-10-16 19:35:00
3:55 PM,70.0,60.6,72,29.99,10.0,Calm,Calm,-,N/A,,Overcast,0,2013-10-16 19:55:00
4:15 PM,69.3,60.6,74,29.98,10.0,East,4.6,-,N/A,,Overcast,100,2013-10-16 20:15:00
4:35 PM,69.1,60.3,73,29.98,10.0,Calm,Calm,-,N/A,,Overcast,0,2013-10-16 20:35:00
4:55 PM,68.7,60.3,74,29.98,10.0,Calm,Calm,-,N/A,,Overcast,0,2013-10-16 20:55:00
5:15 PM,68.9,60.1,73,29.99,10.0,Calm,Calm,-,N/A,,Overcast,0,2013-10-16 21:15:00
5:35 PM,68.4,60.1,75,29.97,10.0,SSE,3.5,-,N/A,,Overcast,150,2013-10-16 21:35:00
5:55 PM,68.2,59.9,75,29.98,10.0,SSE,3.5,-,N/A,,Overcast,160,2013-10-16 21:55:00
6:15 PM,68.0,60.3,76,29.97,10.0,Calm,Calm,-,N/A,,Overcast,0,2013-10-16 22:15:00
6:35 PM,67.1,60.3,79,29.97,10.0,Calm,Calm,-,N/A,,Overcast,0,2013-10-16 22:35:00
6:55 PM,66.0,60.3,82,29.97,10.0,Calm,Calm,-,N/A,,Mostly Cloudy,0,2013-10-16 22:55:00
7:15 PM,65.3,60.4,84,29.98,10.0,Calm,Calm,-,N/A,,Scattered Clouds,0,2013-10-16 23:15:00
7:35 PM,64.9,61.0,87,29.99,10.0,Calm,Calm,-,N/A,,Scattered Clouds,0,2013-10-16 23:35:00
7:55 PM,64.6,61.0,88,29.99,10.0,Calm,Calm,-,N/A,,Clear,0,2013-10-16 23:55:00
8:15 PM,64.4,61.0,89,29.99,10.0,Calm,Calm,-,N/A,,Clear,0,2013-10-17 00:15:00
8:35 PM,63.5,61.2,92,29.99,10.0,Calm,Calm,-,N/A,,Clear,0,2013-10-17 00:35:00
8:55 PM,63.5,60.8,91,29.99,10.0,Calm,Calm,-,N/A,,Clear,0,2013-10-17 00:55:00
9:15 PM,63.1,60.8,92,30.00,10.0,Calm,Calm,-,N/A,,Clear,0,2013-10-17 01:15:00
9:35 PM,62.1,59.5,91,30.00,10.0,Calm,Calm,-,N/A,,Clear,0,2013-10-17 01:35:00
9:55 PM,61.9,60.1,94,30.00,10.0,Calm,Calm,-,N/A,,Clear,0,2013-10-17 01:55:00
10:15 PM,61.7,59.9,94,30.00,10.0,SW,3.5,-,N/A,,Clear,220,2013-10-17 02:15:00
10:35 PM,61.9,59.9,93,29.99,10.0,Calm,Calm,-,N/A,,Clear,0,2013-10-17 02:35:00
10:55 PM,61.5,59.4,93,29.99,10.0,Calm,Calm,-,N/A,,Clear,0,2013-10-17 02:55:00
11:15 PM,60.6,58.6,93,29.98,10.0,Calm,Calm,-,N/A,,Clear,0,2013-10-17 03:15:00
11:35 PM,60.8,59.0,94,29.98,10.0,SW,3.5,-,N/A,,Clear,230,2013-10-17 03:35:00
11:55 PM,61.7,59.5,93,29.98,10.0,SW,3.5,-,N/A,,Clear,230,2013-10-17 03:55:00